Weather in Funafuti

Tuvalu     8°30′48″S   179°11′32″E
temp.,
°C
wind,
m/s
gust,
m/s
humid.,
%
clouds,
%
prec.,
mm/h
press.,
hPa
HPBL,
m
16 april, fri
fri1600:00+28ese227120 0.2 1010729
03:00+28se23725 1.6 1009636
06:00+28ese447529 4.9 1010360
09:00+28e33730 2.3 1012638
12:00+28e33720 3.6 1010528
15:00+29e22692 0.1 1008737
18:00+29e22696 0.1 1009869
21:00+28ene447410 0.7 1011616
17 april, sat
sat1700:00+28e347398 3.6 1010755
03:00+28ene447399 0.5 1008799
06:00+28e447798 6.2 1010286
09:00+28e457396 1.2 1011762
12:00+29ene44726 1.3 1009876
15:00+29e447210 0.0 1007905
18:00+29e447115 0.1 1008900
21:00+29e55739 0.4 1010925
18 april, sun
sun1800:00+29e5574100 2.8 1009871
03:00+28e5575100 2.3 1007693
06:00+29e5673100 5.5 1009945
09:00+29e667450 0.5 1010931
12:00+29e667331 1.1 1009946
15:00+29e667324 0.3 1007970
18:00+29e6673100 1.1 1008937
21:00+29e677591 0.4 1009855
19 april, mon
mon1900:00+29e777591 0.6 1008949
03:00+29e677656 0.4 1007948
06:00+29e677599 0.9 1009932
09:00+29e77745 0.1 1010979
12:00+29e67749 0.5 1009958
15:00+29e6674100 0.7 1007940
18:00+29e6676100 1.5 1008660
21:00+29e677295 3.0 1010773
20 april, tue
tue2000:00+29e7773100 5.1 1009784
03:00+29ese677182 1.5 1008895
06:00+29ese787351 2.6 1009834
09:00+29e787368 2.7 1011707
12:00+29e887297 4.8 1010871
15:00+29e7770100 0.1 1008749
18:00+28e6676100 0.8 1009650
21:00+29ene5574100 2.8 1011761